Regional Weather Roundup
Issued by NWS Charleston, SC

Current Version | Previous Version | Graphics & Text | Print | Product List | Glossary On
Versions: 1 2 3 4 5 6 7 8 9 10 11 12 13 14 15 16 17 18 19 20 21 22 23 24 25 26 27 28 29 30 31 32 33 34 35 36 37 38 39 40 41 42 43 44 45 46 47 48 49 50
000
ASUS42 KCHS 041612
RWRCHS

REGIONAL WEATHER ROUNDUP
NATIONAL WEATHER SERVICE CHARLESTON SC
1200 PM EDT MON MAY 04 2015

NOTE: "FAIR" INDICATES FEW OR NO CLOUDS BELOW 12,000 FEET WITH NO
SIGNIFICANT WEATHER AND/OR OBSTRUCTIONS TO VISIBILITY.

NOT ALL STATIONS ARE QUALITY CONTROLLED BY THE NATIONAL
WEATHER SERVICE. USE DATA WITH CAUTION...ESPECIALLY
DEWPOINT OBSERVATIONS.

SCZ027-030-031-034>040-042>050-041700-
...SOUTHEAST SOUTH CAROLINA...

CITY           SKY/WX    TMP DP  RH WIND       PRES   REMARKS
N CHARLESTON   MOSUNNY   79  55  43 SE9       30.33S
WATERFRONT PRK   N/A     73 N/A N/A E10         N/A
MOUNT PLEASANT FAIR      77  57  50 MISG      30.34R
PINOPOLIS      NOT AVBL
MONCKS CORNER  FAIR      81  50  34 NE7       30.33S
SUMMERVILLE    PTSUNNY   79  59  50 SE3       30.34S
BEAUFORT MCAS  MOSUNNY   77  60  55 NE9       30.32S
BEAUFORT ARPT  FAIR      79  61  53 E6        30.32S
HILTON HEAD IS MOSUNNY   77  59  53 NE7       30.34R
WALTERBORO     MOSUNNY   75  57  53 SE6       30.33S
ALLENDALE      FAIR      77  57  50 S7        30.32S

...SOUTHERN MIDLANDS AND PEE DEE...

CITY           SKY/WX    TMP DP  RH WIND       PRES   REMARKS
GEORGETOWN     NOT AVBL
KINGSTREE      NOT AVBL
ORANGEBURG     SUNNY     77  50  38 SW5       30.33S
BARNWELL       FAIR      79  52  38 S5        30.34S
AIKEN          FAIR      73  48  40 SW5       30.37R
MANNING        FAIR      75  43  31 SW7       30.34S
COLUMBIA       SUNNY     79  50  36 W7        30.33S
SUMTER         SUNNY     77  49  37 VRB7      30.32S
FLORENCE       SUNNY     78  50  37 NW5       30.33S
MYRTLE BEACH   NOT AVBL
N MYRTLE BEACH SUNNY     74  57  55 S9        30.35S

$$

GAZ063-065-086>088-099>101-113>116-118-119-134>141-150-041700-
...SOUTHEAST GEORGIA...

CITY           SKY/WX    TMP DP  RH WIND       PRES   REMARKS
SAVANNAH ARPT  MOSUNNY   80  54  40 E10       30.32R
HUNTER AAF     NOT AVBL
FORT STEWART   NOT AVBL
STATESBORO       N/A     78  56  47 E6        30.32S
SYLVANIA       SUNNY     77  59  53 E3        30.33S
CLAXTON        FAIR      77  59  53 CALM      30.31F

...CSRA...CENTRAL AND FAR SOUTHEAST GEORGIA...

CITY           SKY/WX    TMP DP  RH WIND       PRES   REMARKS
THOMSON        SUNNY     80  55  43 CALM      30.38R
AUGUSTA-BUSH   SUNNY     76  52  43 CALM      30.32S
AUGUSTA-DANIEL SUNNY     77  49  37 VRB3      30.34R
SWAINSBORO     NOT AVBL
VIDALIA        SUNNY     77  57  50 SE5       30.32S
EASTMAN        FAIR      77  56  48 SE5       30.34R
HAZLEHURST     FAIR      79  53  40 E6        30.30S
ALMA           SUNNY     78  56  46 E8        30.30S
WAYCROSS       MOSUNNY   80  60  50 E10       30.30S
JESUP          FAIR      81  63  54 E7        30.30F
BAXLEY         FAIR      79  57  47 SE3       30.30S
BRUNSWICK      MOSUNNY   79  57  47 E7        30.32S
SAINT SIMONS   MOSUNNY   77  62  59 E10       30.31R

$$

SCZ027-028-034-036>038-045-046-048>050-GAZ119-141-041700-
...LAKE AND SUPPLEMENTAL COASTAL OBSERVATIONS...

STATION/POSITION TIME  TEMP    WIND        PRES    WAVE   SWELL
                       AIR SEA DIR/SP/G            HT/PER HT/PER/DIR
                 (UTC) (F)     (DEG/KT/KT) (MB)    (FT/S) (FT/S/D)
UPR LAKE MARION  NOT AVBL
WINYAH BAY       1445   73     120/  5     1027.0
LAKE MURRAY      1500   71     180/  5/  6 1026.4S
ACE BASIN NERRS  1445   76                   N/A
FORT PULASKI     1500   71 70   70/  7/  8 1027.1R
SAPELO ISLAND    1500   79     100/  6     1026.0S

$$

ANZ835-935-AMZ111-154-330-350-352-354-370-450-454-472-041700-
...C-MAN AND BUOY OBSERVATIONS...

STATION/POSITION TIME  TEMP    WIND        PRES    WAVE   SWELL
                       AIR SEA DIR/SP/G            HT/PER HT/PER/DIR
                 (UTC) (F)     (DEG/KT/KT) (MB)    (FT/S) (FT/S/D)
BUOY 41004       1550   73 74   70/ 10/ 12 1027.3R   3/10   2/10
BUOY 41008       1550   71 70   70/  8/ 10 1026.9R   2/12   2/ 60/12
FOLLY BEACH CMAN 1600   71     100/  7/  7 1027.6R
CAPERS NEARSHORE 1508   72      90/  4/  6 1027.3R
FRIPP NEARSHORE  1500   72      70/  6/  8 1026.1R


STATION/POSITION TIME  TEMP    WIND        PRES    WAVE   SWELL
                       AIR SEA DIR/SP/G            HT/PER HT/PER/DIR
                 (UTC) (F)     (DEG/KT/KT) (MB)    (FT/S) (FT/S/D)
5E ST. MARYS GA  1521      72                N/A     2/11   2/ 70/11
FRYING PAN BUOY  1550   72 72   30/  6/  6 1028.8R   3/10   3/ 80/10
BUOY 41025       1550   68 77  290/  6/  6 1028.0S   4/10   3/ 60/10
CAPE LOOKOUT NC  1500   67      90/  4/  4 1027.7R
BUOY 41002       1550   68 70   80/ 16/ 17 1028.2R   6/10   5/ 30/10
BUOY 41010       1520   74 78   70/ 14/ 17 1024.6R
ST AUGUSTINE FL  1600   69 71   10/  3/  4 1026.4R


$$



USA.gov is the U.S. government's official web portal to all federal, state and local government web resources and services.